Regional Weather Roundup
Issued by NWS

Home | Current Version | Previous Version | Graphics & Text | Print | Product List | Glossary On
Versions: 1 2 3 4 5 6 7 8 9 10 11 12 13 14 15 16 17 18 19 20 21 22 23 24 25 26 27 28 29 30 31 32 33 34 35 36 37 38 39 40 41 42 43 44 45 46 47 48 49 50
000
ASUS45 KSLC 212010
RWRUT

UTAH REGIONAL WEATHER ROUNDUP
NATIONAL WEATHER SERVICE SALT LAKE CITY UT
200 PM MDT THU AUG 21 2014

UTZ001>011-023>025-212100-

NORTHERN UTAH

CITY           SKY/WX    TMP DP  RH WIND       PRES   REMARKS
HILL AFB       MOSUNNY   73  48  40 SE7       30.12F
LOGAN          PTSUNNY   70  49  47 SW7       30.11F
OGDEN          CLOUDY    74  48  39 VRB6      30.10F
PROVO AIRPORT  PTSUNNY   79  45  29 W5        30.11F
SALT LAKE CITY CLOUDY    78  47  33 S5        30.08F
VERNAL         MOSUNNY   75  50  41 S9        30.13F
WENDOVER       PTSUNNY   77  46  33 SE6       30.06F
HEBER CITY     PTSUNNY   73  41  31 CALM      30.15F
WEST JORDAN    CLOUDY    75  55  50 CALM      30.12F

$$

UTZ012>022-026-027-212100-

SOUTHERN UTAH

CITY           SKY/WX    TMP DP  RH WIND       PRES   REMARKS
BRYCE CANYON   CLOUDY    66  47  50 SE10      30.30F
CEDAR CITY     PTSUNNY   73  46  38 NW6       30.16F
MILFORD        MOSUNNY   82  42  24 S14G25    30.10F
MOAB/CYNLANDS  SUNNY     81  48  31 CALM      30.08F
PRICE          CLOUDY    75  44  33 SW8       30.17F
ST GEORGE      MOCLDY    84  52  32 CALM      30.02F
KANAB            N/A     79  46  31 S7        30.17F

$$

REGIONAL REPORTS     COLORADO/ARIZONA

CITY           SKY/WX    TMP DP  RH WIND       PRES   REMARKS
CRAIG, CO      CLOUDY    74  46  36 W10G18    30.19F
GRAND JUNCTION CLOUDY    76  45  33 NW6       30.12F
RIFLE          CLOUDY    77  39  25 W15       30.16S
MONTROSE       PTSUNNY   81  40  23 VRB6      30.18F
CORTEZ         MOSUNNY   81  35  19 W12       30.19S
PAGE, AZ       PTSUNNY   83  44  25 N6        30.10F
GRAND CANYON   PTSUNNY   70  41  34 CALM      30.27F
KINGMAN        LGT RAIN  63  58  83 E6        30.20R
FLAGSTAFF      CLOUDY    62  48  60 S10       30.30S

$$

REGIONAL REPORTS    NEVADA/IDAHO/WYOMING

CITY           SKY/WX    TMP DP  RH WIND       PRES   REMARKS
LAS VEGAS, NV  PTSUNNY   90  48  23 SE16G28   29.91F
ELY            MOSUNNY   73  35  25 SW10G18   30.17F
ELKO           SUNNY     83  32  16 SW8G18    30.04F
POCATELLO, ID  MOSUNNY   75  53  46 SW10G17   30.08F
BURLEY         SUNNY     74  54  49 SW8       30.03F
EVANSTON, WY   CLOUDY    63  44  50 W18       30.25S
ROCK SPRINGS   MOSUNNY   69  41  36 W25G31    30.20S

$$


USA.gov is the U.S. government's official web portal to all federal, state and local government web resources and services.